| time (UTC) | temp F | wind direction | speed MPH | gust MPH | rain 1hr in | rain 24hr in | rain mn in | humidity % | barometer mb |
| 20260905151534 | 63 | 234 | 5.0 | 18.0 | 0.00 | 0.00 | 0.00 | 68 | 1020.3 |
| 20260905150015 | 63 | 277 | 8.0 | 17.0 | 0.00 | 0.00 | 0.00 | 67 | 1020.4 |
| 20260905144508 | 63 | 291 | 5.0 | 13.0 | 0.00 | 0.00 | 0.00 | 68 | 1020.4 |
| 20260905143101 | 63 | 263 | 6.0 | 15.0 | 0.00 | 0.00 | 0.00 | 66 | 1020.1 |
| 20260905141506 | 60 | 229 | 6.0 | 13.0 | 0.00 | 0.00 | 0.00 | 68 | 1020.4 |
| 20260905140010 | 62 | 257 | 7.0 | 14.0 | 0.00 | 0.00 | 0.00 | 67 | 1020.3 |
| 20260905134510 | 63 | 248 | 7.0 | 15.0 | 0.00 | 0.00 | 0.00 | 66 | 1020.3 |
| 20260905133118 | 63 | 232 | 4.0 | 12.0 | 0.00 | 0.00 | 0.00 | 67 | 1020.3 |
| 20260905131548 | 63 | 300 | 5.0 | 15.0 | 0.00 | 0.00 | 0.00 | 64 | 1020.0 |
| 20260905130108 | 63 | 227 | 6.0 | 12.0 | 0.00 | 0.00 | 0.00 | 64 | 1019.9 |
| 20260905124540 | 63 | 226 | 10.0 | 18.0 | 0.00 | 0.00 | 0.00 | 65 | 1019.7 |
| 20260905123045 | 62 | 227 | 5.0 | 15.0 | 0.00 | 0.00 | 0.00 | 66 | 1019.7 |
| 20260905121544 | 62 | 265 | 6.0 | 15.0 | 0.00 | 0.00 | 0.00 | 66 | 1019.6 |
| 20260905120040 | 63 | 272 | 5.0 | 17.0 | 0.00 | 0.00 | 0.00 | 63 | 1019.3 |
| 20260905114544 | 61 | 269 | 7.0 | 13.0 | 0.00 | 0.01 | 0.00 | 66 | 1019.2 |
| 20260905113042 | 61 | 243 | 6.0 | 14.0 | 0.00 | 0.01 | 0.00 | 68 | 1019.2 |
| 20260905111517 | 61 | 266 | 6.0 | 15.0 | 0.00 | 0.01 | 0.00 | 69 | 1019.1 |
| 20260905110200 | 61 | 276 | 4.0 | 16.0 | 0.00 | 0.01 | 0.00 | 72 | 1019.1 |
| 20260905104613 | 60 | 281 | 7.0 | 14.0 | 0.00 | 0.02 | 0.00 | 70 | 1018.7 |
| 20260905103137 | 59 | 303 | 6.0 | 20.0 | 0.00 | 0.02 | 0.00 | 71 | 1018.6 |
| 20260905101519 | 59 | 260 | 6.0 | 14.0 | 0.00 | 0.02 | 0.00 | 71 | 1018.2 |
| 20260905100007 | 59 | 269 | 6.0 | 15.0 | 0.00 | 0.02 | 0.00 | 69 | 1018.0 |
| 20260905094507 | 59 | 248 | 6.0 | 15.0 | 0.00 | 0.02 | 0.00 | 71 | 1017.9 |
| 20260905093123 | 58 | 227 | 6.0 | 17.0 | 0.00 | 0.02 | 0.00 | 72 | 1018.0 |
| 20260905091515 | 57 | 314 | 7.0 | 14.0 | 0.00 | 0.02 | 0.00 | 72 | 1017.8 |
| 20260905090010 | 57 | 256 | 7.0 | 14.0 | 0.00 | 0.02 | 0.00 | 74 | 1017.5 |
| 20260905084505 | 56 | 271 | 6.0 | 14.0 | 0.00 | 0.02 | 0.00 | 76 | 1017.2 |
| 20260905083117 | 56 | 259 | 6.0 | 16.0 | 0.00 | 0.02 | 0.00 | 77 | 1017.0 |
| 20260905081506 | 55 | 238 | 7.0 | 17.0 | 0.00 | 0.02 | 0.00 | 78 | 1016.7 |
| 20260905080155 | 54 | 288 | 5.0 | 15.0 | 0.00 | 0.02 | 0.00 | 78 | 1016.5 |
| 20260905074524 | 53 | 280 | 4.0 | 14.0 | 0.00 | 0.02 | 0.00 | 81 | 1016.5 |
| 20260905073135 | 53 | 278 | 5.0 | 12.0 | 0.00 | 0.02 | 0.00 | 82 | 1016.3 |
| 20260905071558 | 53 | 242 | 3.0 | 11.0 | 0.00 | 0.02 | 0.00 | 82 | 1016.1 |
| 20260905064545 | 52 | 267 | 7.0 | 14.0 | 0.00 | 0.02 | 0.00 | 83 | 1015.5 |
| 20260905063056 | 51 | 295 | 5.0 | 16.0 | 0.00 | 0.02 | 0.00 | 83 | 1015.2 |
| 20260905061549 | 51 | 250 | 5.0 | 13.0 | 0.00 | 0.02 | 0.00 | 83 | 1015.1 |
| 20260905060048 | 51 | 265 | 5.0 | 15.0 | 0.00 | 0.02 | 0.00 | 84 | 1014.9 |
| 20260905054550 | 51 | 249 | 7.0 | 17.0 | 0.00 | 0.02 | 0.00 | 84 | 1014.6 |
| 20260905053106 | 51 | 243 | 6.0 | 15.0 | 0.00 | 0.02 | 0.00 | 84 | 1014.6 |
| 20260905051555 | 51 | 238 | 6.0 | 13.0 | 0.00 | 0.02 | 0.00 | 84 | 1014.2 |
| 20260905050111 | 51 | 215 | 6.0 | 14.0 | 0.00 | 0.02 | 0.00 | 84 | 1014.1 |
| 20260905044604 | 51 | 249 | 5.0 | 15.0 | 0.00 | 0.02 | 0.00 | 84 | 1013.9 |
| 20260905043134 | 51 | 256 | 3.0 | 15.0 | 0.00 | 0.02 | 0.00 | 84 | 1013.8 |
| 20260905041527 | 51 | 288 | 2.0 | 12.0 | 0.00 | 0.02 | 0.00 | 84 | 1013.6 |
| 20260905040047 | 50 | 245 | 5.0 | 13.0 | 0.00 | 0.02 | 0.00 | 84 | 1013.5 |
| 20260905034550 | 51 | 261 | 3.0 | 15.0 | 0.00 | 0.06 | 0.00 | 84 | 1013.0 |
| 20260905033114 | 51 | 280 | 6.0 | 20.0 | 0.00 | 0.06 | 0.00 | 85 | 1012.7 |
| 20260905031604 | 51 | 257 | 6.0 | 15.0 | 0.00 | 0.06 | 0.00 | 85 | 1012.3 |
| 20260905030117 | 51 | 286 | 7.0 | 15.0 | 0.00 | 0.06 | 0.00 | 85 | 1012.0 |
| 20260905024502 | 51 | 244 | 6.0 | 17.0 | 0.00 | 0.06 | 0.00 | 86 | 1011.7 |
| 20260905023112 | 51 | 228 | 7.0 | 16.0 | 0.00 | 0.06 | 0.00 | 86 | 1011.4 |
| 20260905021551 | 51 | 263 | 7.0 | 17.0 | 0.00 | 0.06 | 0.00 | 87 | 1011.5 |
| 20260905020107 | 51 | 234 | 7.0 | 14.0 | 0.00 | 0.06 | 0.00 | 88 | 1011.5 |
| 20260905014602 | 51 | 304 | 6.0 | 15.0 | 0.00 | 0.06 | 0.00 | 89 | 1011.2 |
| 20260905013121 | 51 | 239 | 6.0 | 15.0 | 0.00 | 0.06 | 0.00 | 89 | 1011.1 |
| 20260905011601 | 52 | 257 | 5.0 | 14.0 | 0.00 | 0.06 | 0.00 | 88 | 1011.1 |
| 20260905010107 | 53 | 336 | 7.0 | 18.0 | 0.00 | 0.06 | 0.00 | 85 | 1011.0 |
| 20260905004601 | 53 | 317 | 6.0 | 16.0 | 0.00 | 0.06 | 0.00 | 85 | 1010.6 |
| 20260905003058 | 53 | 239 | 7.0 | 21.0 | 0.00 | 0.06 | 0.00 | 85 | 1010.3 |
| 20260905001607 | 53 | 290 | 8.0 | 17.0 | 0.00 | 0.06 | 0.00 | 85 | 1010.2 |
| 20260905000112 | 53 | 259 | 7.0 | 18.0 | 0.00 | 0.06 | 0.00 | 85 | 1009.9 |
| 20260904234603 | 53 | 306 | 6.0 | 21.0 | 0.00 | 0.06 | 0.00 | 85 | 1009.7 |
| 20260904233127 | 53 | 269 | 8.0 | 23.0 | 0.00 | 0.06 | 0.00 | 86 | 1009.3 |
| 20260904231501 | 54 | 245 | 8.0 | 17.0 | 0.00 | 0.06 | 0.00 | 87 | 1009.2 |
| 20260904230109 | 54 | 271 | 8.0 | 19.0 | 0.00 | 0.06 | 0.00 | 87 | 1009.0 |
| 20260904224533 | 54 | 324 | 6.0 | 20.0 | 0.00 | 0.06 | 0.06 | 86 | 1009.0 |
| 20260904223038 | 53 | 257 | 9.0 | 20.0 | 0.00 | 0.06 | 0.06 | 87 | 1008.8 |
| 20260904221533 | 54 | 25 | 8.0 | 17.0 | 0.00 | 0.06 | 0.06 | 87 | 1008.9 |
| 20260904220041 | 54 | 254 | 6.0 | 23.0 | 0.00 | 0.06 | 0.06 | 86 | 1009.0 |
| 20260904214528 | 54 | 257 | 6.0 | 22.0 | 0.00 | 0.06 | 0.06 | 86 | 1008.8 |
| 20260904213009 | 54 | 244 | 7.0 | 16.0 | 0.00 | 0.06 | 0.06 | 86 | 1008.5 |
| 20260904211515 | 54 | 200 | 6.0 | 16.0 | 0.00 | 0.06 | 0.06 | 87 | 1008.4 |
| 20260904210150 | 54 | 215 | 5.0 | 17.0 | 0.00 | 0.06 | 0.06 | 87 | 1008.5 |
| 20260904204606 | 54 | 269 | 7.0 | 15.0 | 0.00 | 0.06 | 0.06 | 86 | 1008.4 |
| 20260904203136 | 54 | 267 | 7.0 | 17.0 | 0.00 | 0.06 | 0.06 | 85 | 1008.4 |
| 20260904201502 | 54 | 238 | 5.0 | 17.0 | 0.00 | 0.06 | 0.06 | 85 | 1008.3 |
| 20260904200121 | 55 | 298 | 6.0 | 21.0 | 0.00 | 0.06 | 0.06 | 84 | 1008.2 |
| 20260904194612 | 55 | 178 | 9.0 | 17.0 | 0.00 | 0.06 | 0.06 | 84 | 1007.9 |
| 20260904193057 | 55 | 221 | 9.0 | 19.0 | 0.00 | 0.06 | 0.06 | 83 | 1007.8 |
| 20260904191551 | 55 | 270 | 6.0 | 23.0 | 0.00 | 0.06 | 0.06 | 84 | 1007.8 |
| 20260904190120 | 55 | 271 | 7.0 | 16.0 | 0.00 | 0.06 | 0.06 | 84 | 1007.5 |
| 20260904184615 | 55 | 317 | 9.0 | 20.0 | 0.00 | 0.06 | 0.06 | 83 | 1007.3 |
| 20260904183121 | 55 | 254 | 8.0 | 25.0 | 0.00 | 0.06 | 0.06 | 82 | 1007.1 |
| 20260904181613 | 56 | 222 | 9.0 | 20.0 | 0.00 | 0.06 | 0.06 | 80 | 1007.0 |
| 20260904180121 | 57 | 301 | 10.0 | 20.0 | 0.00 | 0.06 | 0.06 | 77 | 1006.8 |
| 20260904174506 | 58 | 302 | 10.0 | 19.0 | 0.00 | 0.06 | 0.06 | 76 | 1006.5 |
| 20260904173124 | 58 | 269 | 9.0 | 17.0 | 0.00 | 0.06 | 0.06 | 76 | 1006.4 |
| 20260904171511 | 58 | 178 | 8.0 | 23.0 | 0.00 | 0.06 | 0.06 | 77 | 1006.3 |
| 20260904170123 | 59 | 284 | 8.0 | 17.0 | 0.00 | 0.06 | 0.06 | 77 | 1006.2 |
| 20260904164512 | 59 | 262 | 8.0 | 20.0 | 0.00 | 0.11 | 0.06 | 76 | 1006.1 |
| 20260904163131 | 59 | 302 | 9.0 | 20.0 | 0.00 | 0.11 | 0.06 | 75 | 1005.9 |
| 20260904161512 | 59 | 257 | 9.0 | 27.0 | 0.00 | 0.11 | 0.06 | 75 | 1005.7 |
| 20260904160110 | 60 | 267 | 12.0 | 28.0 | 0.00 | 0.11 | 0.06 | 73 | 1005.5 |
| 20260904154513 | 60 | 219 | 7.0 | 19.0 | 0.00 | 0.16 | 0.06 | 74 | 1005.4 |
| 20260904153114 | 60 | 242 | 11.0 | 23.0 | 0.00 | 0.16 | 0.06 | 73 | 1005.2 |